Simultaneous Nadir Overpasses (SNOs) Predictions

Prediction of SNOs between NOAA-19 and NPP Satellite Orbit:

Table of predicted SNOs for the next 14.0 days since TLE Epoch: 9/18/2015
Index Date (NOAA-19) Time (NOAA-19) Lat,Lon (NOAA-19) SZA (NOAA-19 ) Date (NPP) Time (NPP) Lat,Lon (NPP) SZA (NPP ) Distance(km) Time Diff (sec)
1 09/27/2015 15:37:56 81.04,-107.65 86.00 09/27/2015 15:39:01 81.04,-107.64 85.96 0.40 65
2 09/27/2015 16:28:55 -81.04, 59.56 93.99 09/27/2015 16:29:46 -81.04, 59.56 94.01 0.26 51
3 09/27/2015 17:19:58 81.04,-132.97 86.00 09/27/2015 17:20:31 81.04,-133.08 86.00 1.90 33
4 09/27/2015 18:10:57 -81.04, 34.23 93.98 09/27/2015 18:11:16 -81.05, 34.12 93.97 2.08 19
5 09/27/2015 19:02:01 81.04,-158.67 86.05 09/27/2015 19:02:01 81.05,-158.53 86.04 2.51 0
6 09/27/2015 19:52:59 -81.04, 8.91 93.98 09/27/2015 19:52:45 -81.03, 9.04 93.99 2.38 14
7 09/27/2015 20:44:02 81.04, 176.39 86.01 09/27/2015 20:43:30 81.03, 176.39 86.02 0.55 32
8 09/27/2015 21:35:00 -81.04, -16.42 93.97 09/27/2015 21:34:14 -81.04, -16.41 93.95 0.25 46




NCC Satellite Simultaneous Nadir Overpasses (SNOs) Prediction Service
